Capitol Logistics 3265


KSAV
Savannah/Hilton Head International Airport
Savannah, Georgia, US
KMIA
Miami International Airport
Miami, Florida, US

Activity Log

Date Flight Route Aircraft Duration
04/09/2020 CPX3265 KELER V437 OMN V3 FLL B752 1h 24m
12/24/2019 CPX3265 KELER V437 OMN V3 FLL SF34 2h 10m
11/27/2019 CPX3265 KELER V437 OMN V3 FLL SF34 2h 04m
10/11/2019 CPX665 KELER V437 OMN V3 FLL SF34 1h 58m
09/24/2019 CPX665 KELER V437 OMN V3 FLL SF34 1h 46m
05/02/2019 CPX665 OMN PHK SF34 1h 32m
03/24/2019 CPX665 KELER V437 OMN V3 FLL SF34 1h 52m

Route Details

Aircraft Information
Primary: Saab 340AF
Backup: Boeing 757-200SF
Route Data
Distance: 382nm
Sched. Duration: 2h 20m
Avg. Duration: 1h 60m (-59m)
Times Flown: 7
Recm'd Route: KELER V437 OMN V3 FLL
Planned Altitude: 17,000ft
Origin Wx: KSAV 251253Z 12006KT 8SM BKN006 OVC018 23/21 A2996 RMK AO2 SLP144 T02280211
Dest. Wx: KMIA 251320Z VRB03G15KT 7SM -RA BKN010 BKN017 OVC037 26/25 A2991 RMK AO2 LTG DSNT SE P0001 T02560250 $
Notes:

Financial History
Total Freight: 103,663lbs
Average Load: 14,809lbs/flt
Fuel Used: 27,765lbs
Avg. Fuel Used: 3,966lbs/flt
Fuel Expense: $26,377
Avg. Fuel Expense: $3,768
Avg. Fuel Cost: $0.95/lbs
Total Gross Income: $124,822
Pilot Pay: $1,493
Total Expenses: $13,845
Total Revenue: $81,627
Average Revenue: $17,831.72